Starlink 31575

operational
NORAD ID: 59471 Int'l Des: 2024-068 Owner: SPXS Country: US Constellation: starlink
LEOCIRCULAR

About Starlink 31575

Description loading...

Live Position

Loading 3D Globe...

Upcoming Passes

Altitude History

Altitude vs Time

uPlot chart will show altitude changes over time

Two-Line Element Set

1 59471U 24068S 25350.71631386 .00004129 00000-0 15945-3 0 9999
2 59471 43.0003 139.5925 0001336 277.0636 83.0063 15.27590182 95875
Epoch: Dec 16, 2025 • Age: 15 hours

Current Status

Altitude 485.0 km
Velocity 7.62 km/s
Sub-Earth Point -12.18°S, 120.51°E
Launch Date Apr 10, 2024
Age 1.6 years
Type internet

Technical Details

Classification Payload
Mass 730.00 kg
Dry Mass 700.00 kg
Total Mass 730.00 kg
Length 0.30 m
Diameter 4.10 m
Span 29.00 m
Shape Box + pan
Manufacturer SPXS
Bus Type Starlink V2M
Phase Status In Orbit
Owner/State SPXS/US

Large Constellations

Loading constellations...